[[{"header":{"parameterUnit":"m.s-1","parameterCategory":1,"la1":30.2991,"la2":30.254,"lo1":-89.0895,"lo2":-89.0444,"dy":0.0017,"dx":0.0017,"nx":28,"ny":28,"refTime":"2024-10-02T03:00:00:Z","depth":0,"parameterNumber":2,"parameterNumberName":"U-component_of_WINDS"},"data":[0,0,0,0,0,0,0,0,0,0,0,0,0,0,0,0,0,0,0,0,0,0,0,0,0,0,0,0,0,0,0,0,0,0,0,0,0,0,0,0,0,0,0,0,0,0,0,0,0,0,0,0,0,0,0,0,0,0,0.3209,0.3209,0,0.3169,0.3169,0.3168,0.3158,0.3158,0.3158,0.3159,0.3116,0.3115,0.3113,0,0,0,0,0,0,0,0,0,0,0,0,0,0.3276,0.3275,0.3209,0.3209,0.3208,0.3169,0.3169,0.3168,0.3158,0.3158,0.3158,0.3159,0.3116,0.3115,0.3113,0,0,0,0,0,0,0,0,0,0,0,0,0,0.3243,0.3275,0.321,0.3199,0.3197,0.3169,0.3169,0.3168,0.3158,0.3158,0.3158,0.3159,0.3117,0.3115,0.3113,0.3092,0,0,0.3107,0.3106,0,0,0,0,0,0,0,0,0.3245,0.324,0.3201,0.3199,0.3198,0.3169,0.3177,0.3143,0.3158,0.3173,0.3159,0.3159,0.3133,0.313,0.3121,0.309,0.3089,0.3106,0.3105,0.3104,0.3104,0,0,0,0,0,0,0,0.3247,0.3242,0.3193,0.32,0.3198,0.3195,0.3191,0.317,0.3151,0.3171,0.3171,0.3166,0.3132,0.3123,0.312,0.3088,0.3106,0.3105,0.3103,0.3102,0.3039,0.3038,0,0,0,0,0,0,0.3251,0.3244,0.3195,0.3192,0.3223,0.3194,0.3189,0.3178,0.3151,0.3148,0.3166,0.3166,0.3127,0.3123,0.3119,0.3093,0.3104,0.3102,0.3101,0.3039,0.3039,0.3038,0,0,0,0,0,0,0.3253,0.3247,0.3196,0.3218,0.3211,0.3192,0.318,0.3177,0.3168,0.3147,0.3144,0.316,0.3127,0.3122,0.3099,0.3091,0.3101,0.3099,0.304,0.3039,0.3038,0.3041,0,0,0,0,0,0,0.3255,0.3248,0.324,0.3218,0.321,0.3178,0.3179,0.3176,0.3164,0.3164,0.3141,0.3137,0.3127,0.3102,0.3097,0.3088,0.3098,0.304,0.3039,0.3039,0.3042,0.3041,0.304,0,0,0,0,0,0.3257,0.3242,0.324,0.3234,0.32,0.3177,0.3173,0.3161,0.3164,0.3156,0.3143,0.3138,0.3093,0.31,0.3094,0.3085,0.3041,0.304,0.3039,0.3042,0.3041,0.304,0,0,0,0,0,0,0.3263,0.3239,0.3236,0.3213,0.3197,0.3176,0.3165,0.316,0.3143,0.3143,0.313,0.3124,0.3103,0.3092,0.31,0.3064,0.3067,0.3065,0.3072,0.307,0.3069,0.3072,0.3096,0,0,0,0,0,0.3261,0.3245,0.3225,0.3207,0.3199,0.3184,0.3173,0.3166,0.3149,0.3142,0.3127,0.3111,0.3093,0.3081,0.3064,0.3041,0.3035,0.3031,0.303,0.303,0.3027,0.3014,0.3012,0.3035,0.3035,0.3035,0,0,0.3258,0.3243,0.3234,0.3208,0.3195,0.3178,0.3178,0.316,0.3147,0.3139,0.3117,0.3106,0.3086,0.3064,0.3053,0.3054,0.302,0.3028,0.3028,0.3026,0.3013,0.3011,0.3009,0.3034,0.3034,0.3034,0,0,0.3243,0.3231,0.3214,0.3201,0.3182,0.3172,0.3168,0.3147,0.3139,0.3117,0.3111,0.3096,0.3065,0.3052,0.3041,0.3022,0.3017,0.3017,0.3011,0.2999,0.2997,0.2995,0.2988,0.2986,0.3015,0.3015,0.3015,0,0.3241,0.3216,0.3206,0.3188,0.3177,0.317,0.3153,0.3141,0.3117,0.3109,0.3111,0.3073,0.3059,0.3033,0.3028,0.302,0.3015,0.3019,0.2998,0.2997,0.2995,0.2988,0.2985,0.3015,0.3015,0.3015,0.3015,0,0.3214,0.3197,0.3186,0.3163,0.3151,0.3134,0.3121,0.3109,0.3104,0.3093,0.3071,0.3055,0.3034,0.3027,0.3021,0.3,0.3002,0.3001,0.3004,0.2993,0.2986,0.2983,0.3015,0.3015,0.3015,0.3015,0,0,0.3199,0.3173,0.3169,0.3158,0.3137,0.3124,0.3107,0.3087,0.3077,0.3061,0.3046,0.3021,0.3021,0.3008,0.3001,0.299,0.2976,0.2991,0.299,0.2988,0.2951,0.2951,0.2948,0.2973,0.2973,0.2972,0.2953,0,0.3181,0.315,0.3141,0.3115,0.3099,0.3093,0.3078,0.3063,0.3053,0.3038,0.3027,0.3009,0.3011,0.3003,0.2992,0.298,0.2968,0.2981,0.2958,0.2957,0.2962,0.2944,0.2943,0.2925,0.295,0.2949,0.2949,0,0.3155,0.3139,0.3112,0.3093,0.3086,0.3073,0.3054,0.304,0.3023,0.3017,0.3004,0.2998,0.2979,0.2984,0.2959,0.2968,0.2958,0.2951,0.295,0.2946,0.2951,0.2938,0.2919,0.2916,0.2945,0.2945,0.2945,0,0.3146,0.3118,0.3098,0.3089,0.3067,0.3058,0.3049,0.3033,0.3021,0.3005,0.2998,0.298,0.297,0.2956,0.2945,0.295,0.292,0.2924,0.2913,0.2913,0.2906,0.2906,0.2883,0.2902,0.2902,0.2902,0.2902,0,0.3125,0.3108,0.3093,0.308,0.3061,0.3052,0.3033,0.3023,0.3009,0.2994,0.2988,0.2975,0.2962,0.2946,0.2938,0.2917,0.2913,0.2907,0.2905,0.2907,0.2907,0.2899,0.2899,0.2901,0.2902,0.2902,0.2902,0,0.311,0.31,0.3077,0.3059,0.3054,0.3041,0.3025,0.3013,0.3004,0.2985,0.298,0.2966,0.2947,0.2936,0.2912,0.2906,0.2884,0.2882,0.2889,0.2888,0.2877,0.2878,0.2847,0.2842,0.2865,0.2865,0.2865,0,0.3097,0.3084,0.3065,0.3055,0.3045,0.3029,0.3018,0.3008,0.2997,0.2978,0.2968,0.2949,0.2933,0.2904,0.2891,0.2874,0.2871,0.2861,0.2868,0.287,0.2869,0.2869,0.2868,0.286,0.2859,0.2859,0.2859,0,0.3074,0.307,0.3054,0.3037,0.3024,0.301,0.2996,0.2988,0.2976,0.2964,0.2945,0.2933,0.291,0.2891,0.2873,0.2862,0.2858,0.2858,0.2854,0.2855,0.2859,0.2855,0.2884,0.2858,0.2858,0.2858,0.2858,0.2858,0.3058,0.3046,0.3031,0.3014,0.3003,0.299,0.2978,0.2968,0.2952,0.2933,0.2928,0.2909,0.2893,0.2868,0.2858,0.2842,0.2843,0.2838,0.2836,0.2835,0.2834,0.2863,0.2839,0.2839,0.2839,0.2839,0.2839,0,0.3033,0.3024,0.3009,0.299,0.2977,0.2976,0.2961,0.2949,0.2932,0.2919,0.2904,0.2883,0.2865,0.2852,0.2833,0.2824,0.2821,0.2819,0.2819,0.2816,0.2835,0.2839,0.2821,0.2821,0.2821,0.2821,0.2821,0.2821,0.3019,0.2999,0.2993,0.2967,0.2958,0.2939,0.293,0.2919,0.2908,0.2885,0.287,0.2862,0.2848,0.2829,0.2813,0.281,0.2802,0.28,0.2796,0.2813,0.2815,0.2817,0.2821,0.2799,0.2799,0.2779,0.2779,0.2779]},{"header":{"parameterUnit":"m.s-1","parameterCategory":1,"la1":30.2991,"la2":30.254,"lo1":-89.0895,"lo2":-89.0444,"dy":0.0017,"dx":0.0017,"nx":28,"ny":28,"refTime":"2024-10-02T03:00:00:Z","depth":0,"parameterNumber":3,"parameterNumberName":"V-component_of_WINDS"},"data":[0,0,0,0,0,0,0,0,0,0,0,0,0,0,0,0,0,0,0,0,0,0,0,0,0,0,0,0,0,0,0,0,0,0,0,0,0,0,0,0,0,0,0,0,0,0,0,0,0,0,0,0,0,0,0,0,0,0,-1.2216,-1.2216,0,-1.2205,-1.2205,-1.2205,-1.2194,-1.2194,-1.2194,-1.2194,-1.2182,-1.2182,-1.2182,0,0,0,0,0,0,0,0,0,0,0,0,0,-1.2226,-1.2225,-1.2216,-1.2216,-1.2216,-1.2206,-1.2205,-1.2205,-1.2194,-1.2194,-1.2194,-1.2194,-1.2182,-1.2182,-1.2182,0,0,0,0,0,0,0,0,0,0,0,0,0,-1.2219,-1.2225,-1.2216,-1.2209,-1.2208,-1.2206,-1.2205,-1.2205,-1.2194,-1.2194,-1.2194,-1.2194,-1.2183,-1.2182,-1.2182,-1.2185,0,0,-1.2181,-1.2181,0,0,0,0,0,0,0,0,-1.2219,-1.2219,-1.221,-1.2209,-1.2209,-1.2201,-1.2205,-1.2198,-1.2194,-1.22,-1.2194,-1.2193,-1.2189,-1.2188,-1.2187,-1.2185,-1.2184,-1.2181,-1.2181,-1.2181,-1.2181,0,0,0,0,0,0,0,-1.222,-1.2219,-1.2212,-1.221,-1.2209,-1.2206,-1.2205,-1.2203,-1.2196,-1.2199,-1.2198,-1.2197,-1.2188,-1.2187,-1.2186,-1.2184,-1.2181,-1.2181,-1.2181,-1.2181,-1.2184,-1.2184,0,0,0,0,0,0,-1.2221,-1.2219,-1.2212,-1.2211,-1.2213,-1.2206,-1.2205,-1.2204,-1.2196,-1.2194,-1.2197,-1.2197,-1.2187,-1.2186,-1.2186,-1.2189,-1.2181,-1.2181,-1.2181,-1.2184,-1.2184,-1.2184,0,0,0,0,0,0,-1.2222,-1.2221,-1.2212,-1.2215,-1.2214,-1.2206,-1.2205,-1.2204,-1.2202,-1.2194,-1.2193,-1.2197,-1.2187,-1.2186,-1.2185,-1.2188,-1.2181,-1.2181,-1.2184,-1.2184,-1.2184,-1.2195,0,0,0,0,0,0,-1.2222,-1.2221,-1.2222,-1.2215,-1.2214,-1.2213,-1.2205,-1.2203,-1.2202,-1.2201,-1.2194,-1.2192,-1.2187,-1.2186,-1.2185,-1.2188,-1.218,-1.2183,-1.2184,-1.2184,-1.2194,-1.2195,-1.2197,0,0,0,0,0,-1.2222,-1.2225,-1.2222,-1.2222,-1.2215,-1.2213,-1.2212,-1.2206,-1.2202,-1.2203,-1.2198,-1.2193,-1.2188,-1.2186,-1.2185,-1.2187,-1.2183,-1.2184,-1.2184,-1.2194,-1.2195,-1.2197,0,0,0,0,0,0,-1.2233,-1.2224,-1.2221,-1.2222,-1.2218,-1.2211,-1.2212,-1.2207,-1.2204,-1.2204,-1.2196,-1.2194,-1.2194,-1.2191,-1.2189,-1.219,-1.2185,-1.2185,-1.2192,-1.2194,-1.2195,-1.2195,-1.218,0,0,0,0,0,-1.2235,-1.2234,-1.2227,-1.2228,-1.2227,-1.222,-1.2219,-1.2214,-1.221,-1.2208,-1.2203,-1.2199,-1.2196,-1.2195,-1.2192,-1.2194,-1.2192,-1.2195,-1.2196,-1.2197,-1.2197,-1.2198,-1.2199,-1.2186,-1.2186,-1.2186,0,0,-1.224,-1.2235,-1.2235,-1.223,-1.2227,-1.2226,-1.2219,-1.2218,-1.2217,-1.2208,-1.2207,-1.2203,-1.2198,-1.2198,-1.2198,-1.2195,-1.2201,-1.2198,-1.2199,-1.2198,-1.2198,-1.22,-1.2201,-1.2186,-1.2186,-1.2186,0,0,-1.2248,-1.2245,-1.2246,-1.2243,-1.2238,-1.2233,-1.2233,-1.2227,-1.2224,-1.2223,-1.2216,-1.2215,-1.2211,-1.2207,-1.2205,-1.2212,-1.2207,-1.2212,-1.2218,-1.2218,-1.2219,-1.222,-1.2222,-1.2223,-1.2212,-1.2212,-1.2212,0,-1.2255,-1.2253,-1.2247,-1.2246,-1.2244,-1.2237,-1.2237,-1.2234,-1.2229,-1.2227,-1.2224,-1.2219,-1.2215,-1.2215,-1.2216,-1.2215,-1.2215,-1.2212,-1.222,-1.222,-1.2221,-1.2223,-1.2224,-1.2213,-1.2213,-1.2213,-1.2213,0,-1.2262,-1.226,-1.2262,-1.2256,-1.2255,-1.2255,-1.2248,-1.2247,-1.2243,-1.2238,-1.2237,-1.2232,-1.2229,-1.2228,-1.2224,-1.2227,-1.2225,-1.2221,-1.2216,-1.2223,-1.2225,-1.2225,-1.2214,-1.2213,-1.2213,-1.2213,0,0,-1.2276,-1.2267,-1.2268,-1.2265,-1.2259,-1.2258,-1.2258,-1.2254,-1.2253,-1.225,-1.2249,-1.2246,-1.2242,-1.2239,-1.2235,-1.2235,-1.2241,-1.2231,-1.2231,-1.2232,-1.2243,-1.2246,-1.2247,-1.2237,-1.2238,-1.2238,-1.2244,0,-1.2283,-1.2282,-1.2276,-1.2277,-1.2275,-1.2268,-1.2268,-1.2264,-1.226,-1.2258,-1.2254,-1.2251,-1.2247,-1.2245,-1.2245,-1.224,-1.2243,-1.224,-1.2236,-1.2236,-1.2237,-1.2248,-1.2251,-1.2257,-1.2244,-1.2244,-1.2244,0,-1.229,-1.2288,-1.2288,-1.2282,-1.2281,-1.2281,-1.2277,-1.2276,-1.2271,-1.2268,-1.2266,-1.226,-1.2259,-1.2255,-1.2253,-1.2251,-1.2249,-1.2247,-1.2247,-1.2246,-1.2241,-1.2247,-1.2259,-1.226,-1.2246,-1.2245,-1.2245,0,-1.23,-1.2297,-1.2296,-1.2295,-1.2288,-1.2288,-1.2285,-1.228,-1.2278,-1.2275,-1.2273,-1.227,-1.2268,-1.2265,-1.2259,-1.2256,-1.2258,-1.2253,-1.2255,-1.2255,-1.2256,-1.2256,-1.2267,-1.2255,-1.2255,-1.2255,-1.2255,0,-1.2308,-1.2309,-1.2301,-1.2301,-1.2301,-1.2294,-1.2295,-1.2291,-1.2287,-1.2286,-1.2279,-1.2278,-1.2271,-1.2269,-1.2264,-1.2263,-1.2262,-1.226,-1.2258,-1.226,-1.226,-1.2258,-1.2258,-1.2256,-1.2256,-1.2255,-1.2255,0,-1.2319,-1.2314,-1.2313,-1.2307,-1.2305,-1.2306,-1.23,-1.2299,-1.2295,-1.2294,-1.2293,-1.2286,-1.2283,-1.2277,-1.2273,-1.227,-1.227,-1.2268,-1.2271,-1.227,-1.2273,-1.2273,-1.2283,-1.2284,-1.2272,-1.2273,-1.2273,0,-1.2324,-1.2325,-1.2318,-1.2317,-1.2315,-1.2313,-1.2311,-1.2305,-1.2303,-1.2298,-1.2298,-1.2295,-1.2292,-1.2288,-1.2283,-1.2279,-1.2277,-1.228,-1.2276,-1.2278,-1.2276,-1.2276,-1.2276,-1.2281,-1.2281,-1.2282,-1.2282,0,-1.2334,-1.2332,-1.2329,-1.2326,-1.2324,-1.2322,-1.2318,-1.2318,-1.231,-1.2309,-1.2306,-1.2304,-1.23,-1.2297,-1.2292,-1.2289,-1.2284,-1.2283,-1.2283,-1.2285,-1.2287,-1.2286,-1.2274,-1.2283,-1.2283,-1.2283,-1.2283,-1.2283,-1.2342,-1.2342,-1.2338,-1.2335,-1.2332,-1.233,-1.2329,-1.2324,-1.2322,-1.2318,-1.2315,-1.2312,-1.2308,-1.2301,-1.2298,-1.2296,-1.2294,-1.2294,-1.2294,-1.2294,-1.2295,-1.2288,-1.2295,-1.2295,-1.2295,-1.2295,-1.2295,0,-1.2351,-1.2348,-1.2346,-1.2342,-1.234,-1.2336,-1.2332,-1.2331,-1.2329,-1.2325,-1.2323,-1.232,-1.2317,-1.2311,-1.2307,-1.2307,-1.2304,-1.2306,-1.2306,-1.2305,-1.2298,-1.2298,-1.2308,-1.2308,-1.2308,-1.2308,-1.2308,-1.2308,-1.2356,-1.2355,-1.2352,-1.235,-1.2347,-1.2345,-1.2343,-1.234,-1.2337,-1.2334,-1.2331,-1.2328,-1.2323,-1.2319,-1.2316,-1.2315,-1.2313,-1.2316,-1.2313,-1.2307,-1.2305,-1.2304,-1.2304,-1.2316,-1.2316,-1.2321,-1.2321,-1.2321]}]]